COSMOS 2382 (GLONASS)

Satellite information

Favourite Embed

Satellite Type and Status

PAYLOADIN ORBIT

Key statistics

Satellite COSMOS 2382 (GLONASS) at a glance.

Uptime

8778

Days in orbit

Revolutions

≈ 2.1

Per day

Orbit

MEO

Medium Earth Orbit

Inclination

64.0

Latest

Satellite identification and parameters

Extended collection of information and parameters for COSMOS 2382 (GLONASS).

Object identification

Identified? True

Debris? False

Object name: COSMOS 2382 (GLONASS)

International designator: 2001-053A

Object number (NORAD): 26987

Object ID (CCSDS): 26987

Country: COMMONWEALTH OF INDEPENDENT STATES (CIS)

Current information (Y/N): Y

RCS size: LARGE

Orbital parameters

Period: 675.724 minutes

Inclination: 63.9584 deg

SMA: 25507.797 km

Apoapsis: 19141.342 km

Periapsis: 19117.981 km

RAAN: 64.1419 deg

Eccentricy: 0.00045793

Argument of periapsis: 216.5534 deg

Mean anomaly: 143.7116 deg

Mean motion: 2.13104855 rev/day

Mean motion (dot): -0.00000047 rev/day2

B* drag term: 0.0 1/REarth

Two-line elements (TLE)

Creation date: Dec. 11, 2025, 3:54 a.m.

Reference frame: TEME

Reference center: EARTH

Epoch: Dec. 10, 2025, 7:48 a.m. UTC

TLE line 0: 0 COSMOS 2382 (GLONASS)

TLE line 1: 1 26987U 01053A 25344.32524968 -.00000047 00000-0 00000-0 0 9990

TLE line 2: 2 26987 63.9584 64.1419 0004579 216.5534 143.7116 2.13104855186934

Live tracking on map

Real-time ground track for satellite COSMOS 2382 (GLONASS).

In-orbit conjunctions

A list of the most updated potential collisions computed for object COSMOS 2382 (GLONASS).

Target Orbit TCA Probability of collision Miss distance Type
SL-12 R/B(2) MEO 2025-11-01 23:09:22 TBA 2639.0 (m) ROCKET BODY
SL-12 R/B(2) MEO 2024-12-09 09:32:15 TBA 4227.0 (m) ROCKET BODY

Associated space launch

GLONASS navigation satellites

COSMOS 2382 (GLONASS) was lifted into orbit during the mission ‘Proton | Uragan 78, 79 & Uragan-M 1’, on board a Proton space rocket.

The launch took place on Dec. 1, 2001, 6:04 p.m. from 81/24 (81P).

For more information about the launch, click the button.

Launch to space Proton | Uragan 78, 79 & Uragan-M 1
Proton | Uragan 78, 79 & Uragan-M 1

Agency: N/A

Status: Launch Successful

Launch date: Dec. 1, 2001, 6:04 p.m. UTC

Rocket: Proton

Launch pad: 81/24 (81P)

Location: Baikonur Cosmodrome, Republic of Kazakhstan

...

Latest news about this satellite

There are no fresh news available about this satellite. Check back as we update our databases every day.


Newsletter sign-up

Weekly statistics, charts and insights to help you stay on top of the space industry.